Regional Weather Roundup
Issued by NWS

Home | Current Version | Previous Version | Graphics & Text | Print | Product List | Glossary On
Versions: 1 2 3 4 5 6 7 8 9 10 11 12 13 14 15 16 17 18 19 20 21 22 23 24 25 26 27 28 29 30 31 32 33 34 35 36 37 38 39 40 41 42 43 44 45 46 47 48 49 50
000
ASUS43 KDTX 021701
RWRMI
MICHIGAN HOURLY REGIONAL WEATHER ROUNDUP
NATIONAL WEATHER SERVICE DETROIT/PONTIAC MI
1200 PM EST MON MAR 02 2015

NOTE: "FAIR" INDICATES FEW OR NO CLOUDS BELOW 12,000 FEET WITH NO
SIGNIFICANT WEATHER AND/OR OBSTRUCTION TO VISIBILITY.

MIZ047>049-052>055-059>063-066>070-074>076-081>083-021800-
SOUTHEAST LOWER MICHIGAN

CITY           SKY/WX    TMP DP  RH WIND       PRES   REMARKS
ADRIAN         SUNNY     26  14  60 NW8       30.47R WCI  18
ALMA           MOSUNNY   25  11  55 W13       30.45R WCI  14
ANN ARBOR      SUNNY     27  12  53 W15       30.45  WCI  15
BAD AXE        CLOUDY    23  13  65 NW13      30.40S WCI  11
CARO           SUNNY     25  12  56 W8        30.42R WCI  17
DETROIT CITY   SUNNY     30  11  45 NW12      30.44R WCI  20
DETROIT        MOSUNNY   29  12  49 W12       30.46R WCI  19
FLINT          SUNNY     26  11  52 W12       30.44R WCI  16
GROSSE ILE     SUNNY     28  12  50 W14G21    30.44R WCI  17
HILLSDALE      MOSUNNY   26  13  59 W6        30.44S WCI  19
HOWELL         SUNNY     26  11  55 W9        30.43R WCI  16

CITY           SKY/WX    TMP DP  RH WIND       PRES   REMARKS
JACKSON        SUNNY     26  12  55 NW9       30.44R WCI  17
LAMBERTVILLE   SUNNY     28  16  59 W9        30.48S WCI  20
LANSING        SUNNY     26  12  55 NW12      30.45R WCI  16
LAPEER         FAIR      25  10  53 NW12G17   30.42R WCI  14
MASON          SUNNY     26  12  56 W8        30.45R WCI  17
MONROE         SUNNY     27  14  59 W13       30.46R WCI  16
MT. CLEMENS    MOSUNNY   27  11  53 NW12      30.41R WCI  16
PONTIAC        MOSUNNY   26  11  52 NW14      30.41R WCI  14
PORT HOPE        N/A     24   9  52 NW8       30.38R WCI  15
PORT HURON     MOSUNNY   25  12  58 NW10G16   30.43R WCI  15
TRI CITIES     MOSUNNY   26  10  50 W9        30.43R WCI  17
TROY           SUNNY     31  10  41 W9        30.45R WCI  23
SAGINAW HB     SUNNY     28  14  54 W12       30.43R WCI  18
$$
MIZ043>046-050>051-056>058-064>065-071>073-077>080-021800-
SOUTHWEST LOWER MICHIGAN

CITY           SKY/WX    TMP DP  RH WIND       PRES   REMARKS
BATTLE CREEK   PTSUNNY   29  15  56 W7        30.45F WCI  22
BENTON HARBOR  CLOUDY    26  15  63 W12       30.51R WCI  16
BIG RAPIDS     MOSUNNY   26   8  47 W3        30.41S
COLDWATER      MOSUNNY   27  16  63 W9        30.47S WCI  18
FREMONT        FAIR      25   8  48 N5        30.44F WCI  19
HOLLAND        PTSUNNY   27  14  58 W9        30.49R WCI  18
GRAND RAPIDS   MOSUNNY   27  12  53 NW7       30.45S WCI  19
IONIA          FAIR      28  14  54 NW10      30.44R WCI  19
KALAMAZOO      PTSUNNY   27  14  58 MISG      30.46S
LUDINGTON      MOSUNNY   24   9  52 CALM      30.46S
MARSHALL       MOSUNNY   28  13  52 W12       30.44F WCI  18
MOUNT PLEASANT MOSUNNY   26  10  50 W9G17     30.43R WCI  17
MUSKEGON       PTSUNNY   27  11  51 W8        30.48R WCI  19
SOUTH HAVEN    CLOUDY    29  17  61 NW8       30.50R WCI  21
$$
MIZ016>042-021800-
NORTHERN LOWER MICHIGAN

CITY           SKY/WX    TMP DP  RH WIND       PRES   REMARKS
ALPENA         MOSUNNY   24   4  42 W12G21    30.36R WCI  13
BEAVER ISLAND  SUNNY     21   8  55 W12       30.40R WCI  10
BELLAIRE       MOSUNNY   23   6  49 W9        30.44R WCI  13
CADILLAC       SUNNY     22   6  49 W9G17     30.37R WCI  12
CHARLEVOIX     SUNNY     21  10  63 NW12      30.45R WCI   9
FRANKFORT      MOSUNNY   23  11  61 NW10      30.44S WCI  12
GAYLORD        MOSUNNY   19   5  54 W13       30.34R WCI   6
GRAYLING       SUNNY     21   5  49 W10G17    30.38R WCI  10
HARBOR SPRINGS MOSUNNY   22   9  57 W9        30.39R WCI  11
HOUGHTON LAKE  SUNNY     21   5  50 W13G21    30.38R WCI   9
MANISTEE       MOSUNNY   23   9  54 NW10      30.46R WCI  12
OSCODA         PTSUNNY   25   8  47 W10G16    30.38R WCI  15
PELLSTON       MOSUNNY   20   7  57 W14G28    30.39R WCI   7
ROGERS CITY    SUNNY     24   9  52 NW17      30.37R WCI  10
TRAVERSE CITY  MOSUNNY   23   8  52 NW8       30.42R WCI  14
$$
MIZ007>008-015-021800-
EASTERN UPPER MICHIGAN

CITY           SKY/WX    TMP DP  RH WIND       PRES   REMARKS
KINROSS        PTSUNNY   19   9  63 NW20G28   30.33R WCI   4
MACKINAC ISLAN MOSUNNY   20  10  64 W12G21    30.35R WCI   8
NEWBERRY       MOSUNNY   19   5  54 NW13      30.35R WCI   7
S. S. MARIE    CLOUDY    18   6  59 NW16G23   30.34R WCI   3
MUNISING         N/A     20   7  57 N12G17    30.39R WCI   8
$$
MIZ004>006-011>014-085-021800-
CENTRAL UPPER MICHIGAN

CITY           SKY/WX    TMP DP  RH WIND       PRES   REMARKS
MANISTIQUE     SUNNY     22   7  51 W8G21     30.39R WCI  13
ESCANABA       SUNNY     23   1  39 N6        30.41S WCI  16
MENOMINEE      SUNNY     23   5  46 W3        30.43R
SAWYER-GWINN   SUNNY     19  -2  38 N12G17    30.34S WCI   7
$$
MIZ001>003-009>011-084-021800-
WESTERN UPPER MICHIGAN

CITY           SKY/WX    TMP DP  RH WIND       PRES   REMARKS
IRON MOUNTAIN  SUNNY     21   4  47 NW8       30.36R WCI  11
HOUGHTON       SUNNY     18   4  54 W10       30.35S WCI   6
COPPER HARBOR    N/A     16   3  56 N10       30.38R WCI   4
IRONWOOD       SUNNY     19   7  58 W9        30.36S WCI   9
$$

ABBREVIATIONS USED IN REMARKS
   TC - TEMPERATURE IN CELSIUS
  WCI - WIND CHILL INDEX
   HX - HEAT INDEX
  VSB - VISIBILITY




USA.gov is the U.S. government's official web portal to all federal, state and local government web resources and services.